Terug naar catalogus

FENGYUN 1C DEB

ActiefPO
NORAD 37918·DEBRIS·🇨🇳 China

Gelanceerd May 10, 1999 vanaf Taiyuan Satellite Launch Center

Loading…

Volgende Passages (komende 24 uur)

TLE

VersSource: Space-Track

Epoch: Sep 12, 2026, 20:29 UTC

1 37918U 99025ENT 26255.85373620  .00000819  00000-0  29787-3 0  9991
2 37918  99.0568 223.1759 0054189 200.7876 159.1105 14.35275149 74737

Volg FENGYUN 1C DEB in realtime met AllMySat

Download on the App Store